Location: Cahas Mountain Overlook
(37.0833°N, 80.1000°W)
Time: 23:35:29
(UTC-04:00)

SO-50 - Visible Passes

Search period start: 28 March 2023 00:00
Search period end: 07 April 2023 00:00
Orbit: 586 x 692 km, 64.6° (Epoch: 28 March)

Date Brightness Start Highest point End Pass type
(mag) Time Alt. Az. Time Alt. Az. Time Alt. Az.
05 Apr ? 05:51:49 10° NNE 05:53:56 13° NE 05:56:02 10° ENE visible
05 Apr?21:51:52NE21:51:52NE21:38:52SSWvisible
05 Apr ? 23:29:13 12° N 23:29:13 12° N 23:29:40 10° N visible
06 Apr ? 06:14:01 10° N 06:17:59 26° NE 06:21:49 10° ESE visible
06 Apr ? 20:27:00 10° SE 20:29:04 13° ESE 20:31:09 10° E visible
06 Apr ? 22:04:00 10° SW 22:08:49 68° WNW 22:13:43 10° NNE visible
06 Apr ? 23:49:09 10° NW 23:50:05 10° NW 23:51:03 10° NNW visible
